STARLINK-36047

Last updated on Mon Dec 15 2025 00:02:11 GMT+0000 (Coordinated Universal Time)

1 66795U 25278E 25348.25003472 -.01232106 00000+0 -62778-2 0 9990 2 66795 42.9973 242.8174 0001881 271.5296 110.3058 15.83066927 3106
UTC large
Height (km)
Speed (km/s)
/
Latitude / Longitude
Inclination (degrees)
Orbital Period (minutes)
Azimuth
Elevation
Range (km)
Doppler Factor

Next 0 passes for location: London (51.5072 / 0.1276)

Sorry there are no passes over London.